| time (UTC) | temp F | wind direction | speed MPH | gust MPH | rain 1hr in | rain 24hr in | rain mn in | humidity % | barometer mb |
| 20260504011553 | 63 | 0.0 | 0.0 | 0.00 | 0.00 | 0.00 | 45 | 1013.3 | |
| 20260504011049 | 63 | 0.0 | 0.0 | 0.00 | 0.00 | 0.00 | 44 | 1013.2 | |
| 20260504010545 | 63 | 0.0 | 0.0 | 0.00 | 0.00 | 0.00 | 44 | 1013.4 | |
| 20260504010041 | 64 | 0.0 | 0.0 | 0.00 | 0.00 | 0.00 | 44 | 1013.3 | |
| 20260504005538 | 64 | 0.0 | 0.0 | 0.00 | 0.00 | 0.00 | 43 | 1013.3 | |
| 20260504005036 | 64 | 0.0 | 0.0 | 0.00 | 0.00 | 0.00 | 43 | 1013.2 | |
| 20260504004533 | 64 | 0.0 | 0.0 | 0.00 | 0.00 | 0.00 | 43 | 1013.0 | |
| 20260504004030 | 64 | 0.0 | 0.0 | 0.00 | 0.00 | 0.00 | 43 | 1013.2 | |
| 20260504003526 | 64 | 0.0 | 0.0 | 0.00 | 0.00 | 0.00 | 42 | 1013.1 | |
| 20260504003023 | 64 | 0.0 | 0.0 | 0.00 | 0.00 | 0.00 | 42 | 1013.0 | |
| 20260504002520 | 65 | 0.0 | 0.0 | 0.00 | 0.00 | 0.00 | 42 | 1012.8 | |
| 20260504002018 | 65 | 0.0 | 0.0 | 0.00 | 0.00 | 0.00 | 41 | 1013.1 | |
| 20260504001515 | 65 | 0.0 | 0.0 | 0.00 | 0.00 | 0.00 | 41 | 1012.6 | |
| 20260504001011 | 65 | 0.0 | 0.0 | 0.00 | 0.00 | 0.00 | 41 | 1012.7 | |
| 20260504000509 | 65 | 0.0 | 0.0 | 0.00 | 0.00 | 0.00 | 40 | 1012.6 | |
| 20260504000006 | 65 | 0.0 | 0.0 | 0.00 | 0.00 | 0.00 | 41 | 1012.5 | |
| 20260503235504 | 66 | 0.0 | 0.0 | 0.00 | 0.00 | 0.00 | 40 | 1012.7 | |
| 20260503235000 | 66 | 0.0 | 0.0 | 0.00 | 0.00 | 0.00 | 40 | 1012.8 | |
| 20260503234458 | 66 | 0.0 | 0.0 | 0.00 | 0.00 | 0.00 | 40 | 1012.7 | |
| 20260503233956 | 66 | 0.0 | 0.0 | 0.00 | 0.00 | 0.00 | 39 | 1012.9 | |
| 20260503233452 | 66 | 0.0 | 0.0 | 0.00 | 0.00 | 0.00 | 39 | 1012.7 | |
| 20260503232948 | 66 | 0.0 | 0.0 | 0.00 | 0.00 | 0.00 | 39 | 1012.7 | |
| 20260503232445 | 66 | 0.0 | 0.0 | 0.00 | 0.00 | 0.00 | 39 | 1012.7 | |
| 20260503231943 | 66 | 0.0 | 0.0 | 0.00 | 0.00 | 0.00 | 39 | 1012.7 | |
| 20260503231441 | 66 | 0.0 | 0.0 | 0.00 | 0.00 | 0.00 | 39 | 1012.9 | |
| 20260503230937 | 66 | 0.0 | 0.0 | 0.00 | 0.00 | 0.00 | 39 | 1013.0 | |
| 20260503230434 | 66 | 0.0 | 0.0 | 0.00 | 0.00 | 0.00 | 38 | 1012.7 | |
| 20260503225931 | 66 | 0.0 | 0.0 | 0.00 | 0.00 | 0.00 | 38 | 1013.0 | |
| 20260503225428 | 66 | 0.0 | 0.0 | 0.00 | 0.00 | 0.00 | 39 | 1013.1 | |
| 20260503224924 | 66 | 0.0 | 0.0 | 0.00 | 0.00 | 0.00 | 38 | 1013.1 | |
| 20260503224421 | 66 | 0.0 | 0.0 | 0.00 | 0.00 | 0.00 | 38 | 1013.2 | |
| 20260503223919 | 66 | 0.0 | 0.0 | 0.00 | 0.00 | 0.00 | 39 | 1013.4 | |
| 20260503223416 | 66 | 0.0 | 0.0 | 0.00 | 0.00 | 0.00 | 38 | 1013.7 | |
| 20260503222916 | 66 | 0.0 | 0.0 | 0.00 | 0.00 | 0.00 | 38 | 1013.6 | |
| 20260503222415 | 66 | 0.0 | 0.0 | 0.00 | 0.00 | 0.00 | 39 | 1013.5 | |
| 20260503221913 | 66 | 0.0 | 0.0 | 0.00 | 0.00 | 0.00 | 38 | 1014.0 | |
| 20260503221411 | 66 | 0.0 | 0.0 | 0.00 | 0.00 | 0.00 | 38 | 1013.8 | |
| 20260503220908 | 66 | 0.0 | 0.0 | 0.00 | 0.00 | 0.00 | 38 | 1013.8 | |
| 20260503220404 | 66 | 0.0 | 0.0 | 0.00 | 0.00 | 0.00 | 39 | 1014.1 | |
| 20260503215901 | 66 | 0.0 | 0.0 | 0.00 | 0.00 | 0.00 | 38 | 1013.9 | |
| 20260503215358 | 66 | 0.0 | 0.0 | 0.00 | 0.00 | 0.00 | 38 | 1014.0 | |
| 20260503214856 | 66 | 0.0 | 0.0 | 0.00 | 0.00 | 0.00 | 39 | 1014.3 | |
| 20260503214353 | 66 | 0.0 | 0.0 | 0.00 | 0.00 | 0.00 | 39 | 1014.4 | |
| 20260503213850 | 66 | 0.0 | 0.0 | 0.00 | 0.00 | 0.00 | 39 | 1014.4 | |
| 20260503213348 | 66 | 0.0 | 0.0 | 0.00 | 0.00 | 0.00 | 38 | 1014.5 | |
| 20260503212844 | 66 | 0.0 | 0.0 | 0.00 | 0.00 | 0.00 | 38 | 1014.6 | |
| 20260503212342 | 66 | 0.0 | 0.0 | 0.00 | 0.00 | 0.00 | 37 | 1014.7 | |
| 20260503211839 | 66 | 0.0 | 0.0 | 0.00 | 0.00 | 0.00 | 39 | 1014.6 | |
| 20260503211336 | 66 | 0.0 | 0.0 | 0.00 | 0.00 | 0.00 | 39 | 1014.6 | |
| 20260503210831 | 66 | 0.0 | 0.0 | 0.00 | 0.00 | 0.00 | 39 | 1015.1 | |
| 20260503210329 | 66 | 0.0 | 0.0 | 0.00 | 0.00 | 0.00 | 40 | 1015.0 | |
| 20260503205824 | 66 | 0.0 | 0.0 | 0.00 | 0.00 | 0.00 | 40 | 1015.2 | |
| 20260503205320 | 66 | 0.0 | 0.0 | 0.00 | 0.00 | 0.00 | 40 | 1015.0 | |
| 20260503204817 | 66 | 0.0 | 0.0 | 0.00 | 0.00 | 0.00 | 42 | 1015.2 | |
| 20260503204315 | 66 | 0.0 | 0.0 | 0.00 | 0.00 | 0.00 | 40 | 1015.7 | |
| 20260503203812 | 66 | 0.0 | 0.0 | 0.00 | 0.00 | 0.00 | 41 | 1015.6 | |
| 20260503203309 | 66 | 0.0 | 0.0 | 0.00 | 0.00 | 0.00 | 40 | 1015.8 | |
| 20260503202806 | 66 | 0.0 | 0.0 | 0.00 | 0.00 | 0.00 | 42 | 1015.8 | |
| 20260503202304 | 66 | 0.0 | 0.0 | 0.00 | 0.00 | 0.00 | 41 | 1016.0 | |
| 20260503201801 | 66 | 0.0 | 0.0 | 0.00 | 0.00 | 0.00 | 41 | 1016.3 | |
| 20260503201258 | 66 | 0.0 | 0.0 | 0.00 | 0.00 | 0.00 | 41 | 1016.3 | |
| 20260503200756 | 66 | 0.0 | 0.0 | 0.00 | 0.00 | 0.00 | 40 | 1016.7 | |
| 20260503200251 | 66 | 0.0 | 0.0 | 0.00 | 0.00 | 0.00 | 40 | 1016.7 | |
| 20260503195749 | 66 | 0.0 | 0.0 | 0.00 | 0.00 | 0.00 | 40 | 1016.8 | |
| 20260503195246 | 66 | 0.0 | 0.0 | 0.00 | 0.00 | 0.00 | 43 | 1016.7 | |
| 20260503194743 | 65 | 0.0 | 0.0 | 0.00 | 0.00 | 0.00 | 42 | 1016.7 | |
| 20260503194239 | 65 | 0.0 | 0.0 | 0.00 | 0.00 | 0.00 | 41 | 1017.0 | |
| 20260503193735 | 65 | 0.0 | 0.0 | 0.00 | 0.00 | 0.00 | 41 | 1017.0 | |
| 20260503193231 | 65 | 0.0 | 0.0 | 0.00 | 0.00 | 0.00 | 42 | 1017.2 | |
| 20260503192727 | 65 | 0.0 | 0.0 | 0.00 | 0.00 | 0.00 | 43 | 1017.1 | |
| 20260503192222 | 65 | 0.0 | 0.0 | 0.00 | 0.00 | 0.00 | 41 | 1017.5 | |
| 20260503191719 | 65 | 0.0 | 0.0 | 0.00 | 0.00 | 0.00 | 43 | 1017.5 | |
| 20260503191217 | 65 | 0.0 | 0.0 | 0.00 | 0.00 | 0.00 | 41 | 1017.6 | |
| 20260503190713 | 64 | 0.0 | 0.0 | 0.00 | 0.00 | 0.00 | 44 | 1017.3 | |
| 20260503190210 | 64 | 0.0 | 0.0 | 0.00 | 0.00 | 0.00 | 43 | 1017.3 | |
| 20260503185708 | 64 | 0.0 | 0.0 | 0.00 | 0.00 | 0.00 | 41 | 1017.6 | |
| 20260503185202 | 64 | 0.0 | 0.0 | 0.00 | 0.00 | 0.00 | 42 | 1017.8 | |
| 20260503184657 | 64 | 0.0 | 0.0 | 0.00 | 0.00 | 0.00 | 43 | 1018.1 | |
| 20260503184154 | 63 | 0.0 | 0.0 | 0.00 | 0.00 | 0.00 | 43 | 1018.2 | |
| 20260503183650 | 63 | 0.0 | 0.0 | 0.00 | 0.00 | 0.00 | 43 | 1018.4 | |
| 20260503183148 | 64 | 0.0 | 0.0 | 0.00 | 0.00 | 0.00 | 42 | 1018.7 | |
| 20260503182646 | 63 | 0.0 | 0.0 | 0.00 | 0.00 | 0.00 | 43 | 1018.4 | |
| 20260503182144 | 63 | 0.0 | 0.0 | 0.00 | 0.00 | 0.00 | 43 | 1018.4 | |
| 20260503181640 | 63 | 0.0 | 0.0 | 0.00 | 0.00 | 0.00 | 43 | 1018.6 | |
| 20260503181137 | 63 | 0.0 | 0.0 | 0.00 | 0.00 | 0.00 | 42 | 1018.7 | |
| 20260503180634 | 63 | 0.0 | 0.0 | 0.00 | 0.00 | 0.00 | 45 | 1018.9 | |
| 20260503180132 | 63 | 0.0 | 0.0 | 0.00 | 0.00 | 0.00 | 44 | 1018.8 | |
| 20260503175629 | 62 | 0.0 | 0.0 | 0.00 | 0.00 | 0.00 | 45 | 1019.0 | |
| 20260503175126 | 62 | 0.0 | 0.0 | 0.00 | 0.00 | 0.00 | 44 | 1019.0 | |
| 20260503174623 | 62 | 0.0 | 0.0 | 0.00 | 0.00 | 0.00 | 46 | 1019.0 | |
| 20260503174120 | 62 | 0.0 | 0.0 | 0.00 | 0.00 | 0.00 | 45 | 1019.4 | |
| 20260503173615 | 62 | 0.0 | 0.0 | 0.00 | 0.00 | 0.00 | 45 | 1019.5 | |
| 20260503173111 | 61 | 0.0 | 0.0 | 0.00 | 0.00 | 0.00 | 44 | 1019.8 | |
| 20260503172608 | 61 | 0.0 | 0.0 | 0.00 | 0.00 | 0.00 | 45 | 1019.7 | |
| 20260503172106 | 61 | 0.0 | 0.0 | 0.00 | 0.00 | 0.00 | 44 | 1019.6 | |
| 20260503171602 | 61 | 0.0 | 0.0 | 0.00 | 0.00 | 0.00 | 44 | 1019.7 | |
| 20260503171100 | 61 | 0.0 | 0.0 | 0.00 | 0.00 | 0.00 | 45 | 1020.0 | |
| 20260503170555 | 61 | 0.0 | 0.0 | 0.00 | 0.00 | 0.00 | 45 | 1020.0 | |
| 20260503150948 | 57 | 0.0 | 0.0 | 0.00 | 0.00 | 0.00 | 50 | 1020.7 | |
| 20260503150445 | 57 | 0.0 | 0.0 | 0.00 | 0.00 | 0.00 | 49 | 1020.9 | |
| 20260503131338 | 48 | 0.0 | 0.0 | 0.00 | 0.00 | 0.00 | 72 | 1020.9 | |
| 20260503130835 | 48 | 0.0 | 0.0 | 0.00 | 0.00 | 0.00 | 72 | 1021.1 | |
| 20260503130333 | 48 | 0.0 | 0.0 | 0.00 | 0.00 | 0.00 | 72 | 1020.8 | |
| 20260503110727 | 42 | 0.0 | 0.0 | 0.00 | 0.00 | 0.00 | 85 | 1020.2 | |
| 20260503110224 | 42 | 0.0 | 0.0 | 0.00 | 0.00 | 0.00 | 85 | 1020.3 | |
| 20260503100150 | 39 | 0.0 | 0.0 | 0.00 | 0.00 | 0.00 | 84 | 1020.1 | |
| 20260503090109 | 39 | 0.0 | 0.0 | 0.00 | 0.00 | 0.00 | 84 | 1020.3 | |
| 20260503081545 | 40 | 0.0 | 0.0 | 0.00 | 0.00 | 0.00 | 83 | 1020.0 | |
| 20260503081042 | 39 | 0.0 | 0.0 | 0.00 | 0.00 | 0.00 | 83 | 1020.1 | |
| 20260503080538 | 39 | 0.0 | 0.0 | 0.00 | 0.00 | 0.00 | 83 | 1020.3 | |
| 20260503072512 | 40 | 0.0 | 0.0 | 0.00 | 0.00 | 0.00 | 83 | 1020.0 | |
| 20260503072009 | 40 | 0.0 | 0.0 | 0.00 | 0.00 | 0.00 | 83 | 1020.0 | |
| 20260503071506 | 40 | 0.0 | 0.0 | 0.00 | 0.00 | 0.00 | 82 | 1020.1 | |
| 20260503071002 | 40 | 0.0 | 0.0 | 0.00 | 0.00 | 0.00 | 82 | 1020.2 | |
| 20260503070459 | 40 | 0.0 | 0.0 | 0.00 | 0.00 | 0.00 | 82 | 1020.0 | |
| 20260503054923 | 41 | 0.0 | 0.0 | 0.00 | 0.00 | 0.00 | 81 | 1020.2 | |
| 20260503054419 | 41 | 0.0 | 0.0 | 0.00 | 0.00 | 0.00 | 81 | 1020.1 | |
| 20260503053917 | 41 | 0.0 | 0.0 | 0.00 | 0.00 | 0.00 | 80 | 1020.1 | |
| 20260503053415 | 41 | 0.0 | 0.0 | 0.00 | 0.00 | 0.00 | 80 | 1020.2 | |
| 20260503052911 | 41 | 0.0 | 0.0 | 0.00 | 0.00 | 0.00 | 80 | 1020.2 | |
| 20260503052408 | 41 | 0.0 | 0.0 | 0.00 | 0.00 | 0.00 | 80 | 1020.4 | |
| 20260503051904 | 41 | 0.0 | 0.0 | 0.00 | 0.00 | 0.00 | 80 | 1020.3 | |
| 20260503051400 | 41 | 0.0 | 0.0 | 0.00 | 0.00 | 0.00 | 80 | 1020.2 | |
| 20260503050858 | 41 | 0.0 | 0.0 | 0.00 | 0.00 | 0.00 | 80 | 1020.2 | |
| 20260503050354 | 42 | 0.0 | 0.0 | 0.00 | 0.00 | 0.00 | 80 | 1020.2 | |
| 20260503045851 | 42 | 0.0 | 0.0 | 0.00 | 0.05 | 0.05 | 79 | 1020.1 | |
| 20260503045349 | 42 | 0.0 | 0.0 | 0.00 | 0.05 | 0.05 | 79 | 1020.2 | |
| 20260503044845 | 42 | 0.0 | 0.0 | 0.00 | 0.05 | 0.05 | 79 | 1020.0 | |
| 20260503044342 | 42 | 0.0 | 0.0 | 0.00 | 0.05 | 0.05 | 79 | 1020.0 | |
| 20260503043839 | 42 | 0.0 | 0.0 | 0.00 | 0.05 | 0.05 | 79 | 1020.2 | |
| 20260503043336 | 42 | 0.0 | 0.0 | 0.00 | 0.05 | 0.05 | 79 | 1020.3 | |
| 20260503042832 | 42 | 0.0 | 0.0 | 0.00 | 0.05 | 0.05 | 79 | 1020.1 | |
| 20260503042329 | 43 | 0.0 | 0.0 | 0.00 | 0.05 | 0.05 | 79 | 1020.0 | |
| 20260503041825 | 43 | 0.0 | 0.0 | 0.00 | 0.05 | 0.05 | 78 | 1020.3 | |
| 20260503041323 | 43 | 0.0 | 0.0 | 0.00 | 0.05 | 0.05 | 78 | 1020.0 | |
| 20260503040821 | 43 | 0.0 | 0.0 | 0.00 | 0.05 | 0.05 | 78 | 1020.0 | |
| 20260503040318 | 43 | 0.0 | 0.0 | 0.00 | 0.05 | 0.05 | 78 | 1020.1 | |
| 20260503035815 | 43 | 0.0 | 0.0 | 0.00 | 0.05 | 0.05 | 78 | 1020.0 | |
| 20260503035312 | 44 | 0.0 | 0.0 | 0.00 | 0.05 | 0.05 | 78 | 1020.0 | |
| 20260503034809 | 44 | 0.0 | 0.0 | 0.00 | 0.05 | 0.05 | 77 | 1020.1 | |
| 20260503034306 | 44 | 0.0 | 0.0 | 0.00 | 0.05 | 0.05 | 77 | 1019.9 | |
| 20260503033803 | 44 | 0.0 | 0.0 | 0.00 | 0.05 | 0.05 | 77 | 1020.1 | |
| 20260503033300 | 44 | 0.0 | 0.0 | 0.00 | 0.05 | 0.05 | 76 | 1020.0 | |
| 20260503032758 | 44 | 0.0 | 0.0 | 0.00 | 0.05 | 0.05 | 76 | 1020.1 | |
| 20260503032257 | 44 | 0.0 | 0.0 | 0.00 | 0.05 | 0.05 | 76 | 1019.8 | |
| 20260503031754 | 45 | 0.0 | 0.0 | 0.00 | 0.05 | 0.05 | 75 | 1020.1 | |
| 20260503031252 | 45 | 0.0 | 0.0 | 0.00 | 0.05 | 0.05 | 75 | 1019.8 | |
| 20260503030748 | 45 | 0.0 | 0.0 | 0.00 | 0.05 | 0.05 | 75 | 1019.9 | |
| 20260503030245 | 45 | 0.0 | 0.0 | 0.00 | 0.05 | 0.05 | 75 | 1019.9 | |
| 20260503025741 | 45 | 0.0 | 0.0 | 0.00 | 0.05 | 0.05 | 74 | 1019.9 | |
| 20260503025239 | 46 | 0.0 | 0.0 | 0.00 | 0.05 | 0.05 | 74 | 1019.8 | |
| 20260503024736 | 46 | 0.0 | 0.0 | 0.00 | 0.05 | 0.05 | 74 | 1019.7 | |
| 20260503024233 | 46 | 0.0 | 0.0 | 0.00 | 0.05 | 0.05 | 74 | 1019.6 | |
| 20260503023729 | 46 | 0.0 | 0.0 | 0.00 | 0.05 | 0.05 | 72 | 1019.6 | |
| 20260503023226 | 46 | 0.0 | 0.0 | 0.00 | 0.05 | 0.05 | 72 | 1019.5 | |
| 20260503022722 | 46 | 0.0 | 0.0 | 0.00 | 0.05 | 0.05 | 71 | 1019.7 | |
| 20260503022217 | 47 | 0.0 | 0.0 | 0.00 | 0.05 | 0.05 | 71 | 1019.8 | |
| 20260503021714 | 47 | 0.0 | 0.0 | 0.00 | 0.05 | 0.05 | 70 | 1019.5 | |
| 20260503021210 | 47 | 0.0 | 0.0 | 0.00 | 0.05 | 0.05 | 70 | 1019.5 | |
| 20260503020708 | 47 | 0.0 | 0.0 | 0.00 | 0.05 | 0.05 | 70 | 1019.5 | |
| 20260503020205 | 47 | 0.0 | 0.0 | 0.00 | 0.05 | 0.05 | 69 | 1019.3 | |
| 20260503015702 | 48 | 0.0 | 0.0 | 0.00 | 0.05 | 0.05 | 69 | 1019.3 | |
| 20260503015159 | 48 | 0.0 | 0.0 | 0.00 | 0.05 | 0.05 | 68 | 1019.2 | |
| 20260503014654 | 48 | 0.0 | 0.0 | 0.00 | 0.05 | 0.05 | 67 | 1019.2 | |
| 20260503014152 | 49 | 0.0 | 0.0 | 0.00 | 0.05 | 0.05 | 68 | 1019.1 | |
| 20260503013649 | 49 | 0.0 | 0.0 | 0.00 | 0.05 | 0.05 | 66 | 1019.2 | |
| 20260503013147 | 50 | 0.0 | 0.0 | 0.00 | 0.05 | 0.05 | 63 | 1019.3 | |
| 20260503012644 | 50 | 0.0 | 0.0 | 0.00 | 0.05 | 0.05 | 62 | 1019.3 | |
| 20260503012141 | 50 | 0.0 | 0.0 | 0.00 | 0.05 | 0.05 | 61 | 1018.9 |